Skip Page Navigation
NASA JPL Caltech
NASA Logo - Jet Propulsion Laboratory + View the NASA Portal
+ Center for Near-Earth Object Studies
JPL Home Earth Solar System Stars & Galaxies Technology
JPL Solar System Dynamics
BODIES ORBITS EPHEMERIDES TOOLS PHYSICAL DATA DISCOVERY FAQ SITE MAP
JPL Small-Body Database Browser
Search: [ help ]  
392686 (2011 VY11)
Classification: Main-belt Asteroid          SPK-ID: 2392686
Ephemeris | Orbit Diagram | Orbital Elements | Mission Design | Physical Parameters | Discovery Circumstances | Close-Approach Data ]

[ hide orbit diagram ]

For accurate long-term ephemerides, please instead use our Horizons system.This orbit viewer was implemented using two-body methods, and hence should not be used for determining accurate long-term trajectories (over several years or decades) or planetary encounter circumstances.


Orbital Elements at Epoch 2459396.5 (2021-Jul-01.0) TDB
Reference: JPL 15 (heliocentric ecliptic J2000)
 Element Value Uncertainty (1-sigma)   Units 
e .04196290142088092 4.7436e-08  
a 3.052008255181887 5.6737e-08 au
q 2.923937133633975 1.6688e-07 au
i 8.212784665990318 6.0234e-06 deg
node 246.5544139374999 3.7377e-05 deg
peri 50.99172532451257 8.3667e-05 deg
M 53.84517784598948 7.7372e-05 deg
tp 2459105.212869140516
(2020-Sep-12.71286914)
0.00041612 TDB
period 1947.497831827194
5.33
5.4306e-05
1.487e-07
d
yr
n .1848525806379145 5.1546e-09 deg/d
Q 3.180079376729799 5.9117e-08 au
  Orbit Determination Parameters
   # obs. used (total)      207  
   data-arc span      4958 days (13.57 yr)  
   first obs. used      2005-10-03  
   last obs. used      2019-05-01  
   planetary ephem.      DE441  
   SB-pert. ephem.      SB441-N16  
   condition code      0  
   norm. resid. RMS      .54776  
   source      ORB  
   producer      Otto Matic  
   solution date      2021-Apr-14 11:31:29  

Additional Information
 Earth MOID = 1.91581 au 
 Jupiter MOID = 1.91277 au 
 T_jup = 3.220 
[ show covariance matrix ]

Ephemeris | Orbit Diagram | Orbital Elements | Mission Design | Physical Parameters | Discovery Circumstances | Close-Approach Data ]

Physical Parameter Table
Parameter Symbol Value Units Sigma Reference Notes
absolute magnitude H 15.6   n/a MPO472032  

392686 (2011 VY11)          Discovered 2010-Sep-17 by CSS at Catalina
Reference: Last Updated: 2014-04-17

[ show close-approach data ]
Ephemeris | Orbit Diagram | Orbital Elements | Mission Design | Physical Parameters | Discovery Circumstances | Close-Approach Data ]
ABOUT SSD CREDITS/AWARDS PRIVACY/COPYRIGHT GLOSSARY LINKS
FirstGov 2021-Jul-30 21:13 UT
(server date/time)  
NASA Home Page
Site Manager:   Ryan S. Park
Webmaster  Alan B. Chamberlin